QPF
0.01 0.01 0.01 0.02 0.01 0.01 0.02 0.03 0.03 0.02 0.02 0.02 0.04 0.04 0.03 0.02 0.01 0.01 0.01 0.01 0.01 0.01 0.01 0.03 0.04 0.05 0.05 0.04 0.03 0.02 0.01 0.01 0.01 0.01 0.01 0.01 0.03 0.06 0.03 0.03 0.03 0.02 0.04
0.01 0.01 0.00 0.01 0.01 0.01 0.02 0.06 0.08 0.05 0.04 0.04 0.04 0.03 0.02 0.01 0.01 0.01 0.01 0.01 0.01 0.01 0.02 0.02 0.03 0.04 0.05 0.05 0.04 0.03 0.02 0.01 0.01 0.01 0.00 0.00 0.01 0.03 0.03 0.02 0.02 0.02 0.02
0.01 0.01 0.00 0.00 0.01 0.01 0.01 0.03 0.06 0.06 0.04 0.02 0.02 0.02 0.02 0.01 0.00 0.00 0.01 0.00 0.01 0.01 0.01 0.02 0.02 0.03 0.04 0.04 0.04 0.03 0.03 0.02 0.01 0.01 0.01 0.00 0.00 0.00 0.01 0.01 0.02 0.02 0.02
0.01 0.01 0.00 0.00 0.00 0.01 0.01 0.02 0.03 0.03 0.02 0.02 0.02 0.02 0.01 0.01 0.00 0.00 0.01 0.01 0.01 0.01 0.01 0.01 0.02 0.02 0.03 0.03 0.03 0.02 0.02 0.02 0.02 0.02 0.01 0.01 0.00 0.01 0.01 0.01 0.01 0.01 0.01
0.01 0.01 0.01 0.00 0.01 0.01 0.02 0.03 0.01 0.02 0.02 0.01 0.01 0.01 0.00 0.00 0.00 0.01 0.01 0.01 0.00 0.01 0.01 0.01 0.01 0.02 0.03 0.04 0.04 0.03 0.03 0.02 0.02 0.02 0.02 0.01 0.01 0.01 0.01 0.01 0.01 0.01 0.01
0.01 0.01 0.01 0.00 0.00 0.00 0.01 0.01 0.01 0.02 0.02 0.01 0.00 0.00 0.00 0.00 0.00 0.01 0.01 0.01 0.00 0.00 0.00 0.00 0.00 0.01 0.02 0.03 0.04 0.04 0.03 0.02 0.01 0.01 0.01 0.01 0.01 0.01 0.01 0.01 0.01 0.01 0.01
0.01 0.01 0.00 0.00 0.00 0.00 0.01 0.01 0.01 0.02 0.02 0.01 0.01 0.01 0.01 0.01 0.01 0.01 0.01 0.00 0.00 0.00 0.00 0.00 0.00 0.00 0.00 0.00 0.01 0.02 0.03 0.03 0.02 0.02 0.01 0.02 0.02 0.02 0.01 0.01 0.02 0.01 0.02
0.01 0.01 0.01 0.00 0.01 0.01 0.01 0.02 0.02 0.02 0.02 0.01 0.01 0.01 0.01 0.01 0.01 0.01 0.00 0.01 0.00 0.00 0.00 0.01 0.01 0.00 0.00 0.00 0.00 0.01 0.02 0.02 0.02 0.01 0.01 0.01 0.02 0.02 0.02 0.02 0.02 0.02 0.03
0.01 0.01 0.01 0.01 0.01 0.01 0.01 0.02 0.03 0.03 0.02 0.01 0.01 0.01 0.01 0.00 0.00 0.00 0.00 0.00 0.00 0.00 0.00 0.01 0.01 0.02 0.01 0.01 0.01 0.01 0.02 0.02 0.02 0.01 0.01 0.01 0.01 0.02 0.01 0.02 0.02 0.03 0.03
0.03 0.03 0.03 0.03 0.02 0.02 0.02 0.02 0.03 0.03 0.02 0.01 0.01 0.00 0.00 0.00 0.00 0.00 0.00 0.00 0.00 0.00 0.01 0.01 0.01 0.02 0.03 0.02 0.01 0.01 0.01 0.01 0.01 0.01 0.01 0.01 0.01 0.01 0.02 0.02 0.02 0.03 0.04
0.07 0.06 0.04 0.03 0.02 0.02 0.03 0.02 0.01 0.01 0.01 0.01 0.01 0.00 0.00 0.00 0.00 0.00 0.00 0.00 0.00 0.00 0.00 0.00 0.00 0.01 0.01 0.02 0.02 0.01 0.01 0.01 0.00 0.00 0.00 0.00 0.01 0.01 0.02 0.02 0.03 0.04 0.04
0.04 0.03 0.03 0.03 0.02 0.03 0.02 0.01 0.01 0.01 0.01 0.01 0.01 0.01 0.01 0.01 0.01 0.00 0.00 0.00 0.00 0.00 0.00 0.00 0.01 0.01 0.01 0.01 0.01 0.01 0.01 0.01 0.00 0.00 0.00 0.00 0.00 0.01 0.01 0.01 0.02 0.04 0.04
0.02 0.02 0.01 0.01 0.01 0.02 0.01 0.01 0.02 0.01 0.01 0.01 0.01 0.01 0.01 0.01 0.00 0.00 0.00 0.00 0.00 0.00 0.00 0.01 0.01 0.01 0.01 0.01 0.01 0.01 0.01 0.00 0.00 0.00 0.00 0.00 0.00 0.01 0.01 0.01 0.01 0.02 0.03
0.01 0.01 0.01 0.01 0.01 0.01 0.01 0.01 0.01 0.01 0.01 0.01 0.01 0.01 0.01 0.01 0.01 0.01 0.00 0.00 0.00 0.00 0.00 0.01 0.01 0.01 0.01 0.01 0.01 0.00 0.00 0.01 0.01 0.00 0.00 0.00 0.01 0.01 0.01 0.01 0.01 0.01 0.01
0.00 0.00 0.00 0.01 0.01 0.01 0.01 0.01 0.01 0.01 0.01 0.01 0.01 0.01 0.01 0.01 0.01 0.01 0.01 0.00 0.00 0.01 0.01 0.01 0.00 0.01 0.01 0.01 0.00 0.00 0.00 0.01 0.01 0.01 0.01 0.01 0.01 0.01 0.01 0.01 0.01 0.01 0.01
0.01 0.00 0.00 0.00 0.00 0.00 0.01 0.00 0.00 0.01 0.01 0.00 0.01 0.01 0.01 0.01 0.01 0.01 0.01 0.01 0.01 0.01 0.01 0.01 0.01 0.01 0.01 0.00 0.00 0.00 0.01 0.01 0.01 0.02 0.01 0.01 0.01 0.01 0.01 0.01 0.01 0.01 0.01
0.01 0.00 0.00 0.00 0.00 0.00 0.00 0.00 0.00 0.00 0.00 0.00 0.00 0.00 0.00 0.00 0.01 0.01 0.01 0.01 0.01 0.01 0.01 0.01 0.01 0.01 0.00 0.00 0.00 0.01 0.01 0.02 0.01 0.02 0.03 0.03 0.03 0.03 0.02 0.02 0.01 0.01 0.01
0.01 0.00 0.00 0.00 0.01 0.01 0.00 0.00 0.00 0.00 0.00 0.00 0.00 0.00 0.00 0.00 0.00 0.01 0.01 0.01 0.01 0.01 0.01 0.01 0.00 0.00 0.00 0.00 0.00 0.01 0.01 0.02 0.01 0.02 0.04 0.05 0.04 0.03 0.04 0.04 0.02 0.02 0.03
0.01 0.00 0.00 0.01 0.01 0.02 0.01 0.01 0.01 0.01 0.01 0.01 0.01 0.01 0.01 0.01 0.01 0.01 0.01 0.02 0.02 0.01 0.01 0.01 0.01 0.00 0.01 0.01 0.01 0.01 0.01 0.01 0.01 0.02 0.04 0.05 0.04 0.03 0.02 0.03 0.03 0.02 0.03
0.01 0.01 0.01 0.01 0.01 0.02 0.02 0.02 0.02 0.02 0.02 0.02 0.02 0.02 0.02 0.01 0.01 0.01 0.02 0.02 0.03 0.02 0.02 0.01 0.01 0.01 0.01 0.01 0.01 0.01 0.01 0.01 0.02 0.03 0.05 0.04 0.03 0.03 0.02 0.01 0.01 0.02 0.02
0.02 0.02 0.02 0.02 0.01 0.02 0.02 0.03 0.02 0.02 0.02 0.02 0.02 0.02 0.01 0.01 0.01 0.01 0.02 0.02 0.03 0.03 0.03 0.03 0.01 0.01 0.01 0.01 0.01 0.02 0.02 0.02 0.03 0.04 0.04 0.04 0.03 0.02 0.02 0.01 0.01 0.02 0.02
0.03 0.03 0.02 0.02 0.02 0.01 0.02 0.02 0.02 0.02 0.02 0.01 0.01 0.02 0.01 0.02 0.02 0.02 0.02 0.02 0.02 0.02 0.02 0.02 0.02 0.01 0.01 0.01 0.02 0.02 0.02 0.02 0.02 0.03 0.04 0.03 0.03 0.02 0.02 0.02 0.01 0.01 0.01
0.02 0.02 0.01 0.01 0.01 0.02 0.01 0.01 0.01 0.01 0.01 0.01 0.01 0.01 0.02 0.02 0.01 0.02 0.02 0.02 0.02 0.02 0.02 0.02 0.02 0.02 0.02 0.02 0.02 0.02 0.02 0.03 0.03 0.04 0.04 0.03 0.02 0.02 0.02 0.02 0.02 0.01 0.01
0.02 0.02 0.02 0.01 0.01 0.02 0.01 0.01 0.01 0.01 0.01 0.01 0.01 0.01 0.01 0.01 0.00 0.01 0.01 0.01 0.01 0.01 0.02 0.02 0.02 0.03 0.03 0.03 0.03 0.03 0.03 0.03 0.03 0.03 0.02 0.02 0.02 0.02 0.03 0.03 0.02 0.02 0.01
0.01 0.02 0.02 0.02 0.02 0.01 0.01 0.01 0.01 0.01 0.01 0.01 0.00 0.00 0.01 0.01 0.01 0.01 0.01 0.01 0.01 0.01 0.01 0.02 0.02 0.02 0.03 0.03 0.03 0.03 0.03 0.02 0.02 0.02 0.02 0.02 0.01 0.02 0.03 0.02 0.02 0.02 0.02
0.02 0.03 0.03 0.03 0.02 0.01 0.01 0.01 0.01 0.01 0.00 0.00 0.00 0.00 0.01 0.01 0.01 0.00 0.01 0.01 0.00 0.01 0.01 0.01 0.01 0.02 0.03 0.03 0.03 0.02 0.02 0.02 0.02 0.02 0.02 0.02 0.02 0.02 0.02 0.03 0.02 0.02 0.02
MSLP
1013.03 1012.55 1012.04 1011.48 1010.83 1010.09 1009.28 1008.43 1007.60 1006.84 1006.21 1005.74 1005.47 1005.38 1005.47 1005.69 1006.01 1006.39 1006.80 1007.20 1007.58 1007.92 1008.22 1008.47 1008.68 1008.86 1009.01 1009.13 1009.23 1009.33 1009.42 1009.52 1009.61 1009.70 1009.78 1009.83 1009.85 1009.82 1009.75 1009.64 1009.49 1009.32 1009.15
1012.88 1012.35 1011.79 1011.18 1010.50 1009.74 1008.92 1008.09 1007.29 1006.59 1006.01 1005.61 1005.41 1005.39 1005.54 1005.82 1006.19 1006.61 1007.04 1007.45 1007.81 1008.12 1008.37 1008.56 1008.71 1008.81 1008.90 1008.97 1009.04 1009.12 1009.20 1009.29 1009.39 1009.47 1009.54 1009.56 1009.54 1009.47 1009.35 1009.17 1008.97 1008.74 1008.52
1012.80 1012.23 1011.64 1011.00 1010.29 1009.52 1008.71 1007.91 1007.16 1006.52 1006.01 1005.68 1005.53 1005.57 1005.76 1006.07 1006.46 1006.88 1007.30 1007.69 1008.02 1008.28 1008.48 1008.63 1008.72 1008.78 1008.82 1008.86 1008.91 1008.97 1009.04 1009.12 1009.20 1009.26 1009.29 1009.28 1009.21 1009.08 1008.90 1008.67 1008.40 1008.13 1007.86
1012.82 1012.24 1011.62 1010.96 1010.24 1009.48 1008.70 1007.94 1007.25 1006.66 1006.22 1005.95 1005.85 1005.91 1006.11 1006.42 1006.79 1007.18 1007.56 1007.90 1008.18 1008.40 1008.56 1008.66 1008.72 1008.75 1008.76 1008.78 1008.80 1008.84 1008.89 1008.94 1008.99 1009.01 1009.00 1008.94 1008.82 1008.64 1008.40 1008.12 1007.81 1007.49 1007.18
1012.94 1012.35 1011.73 1011.06 1010.35 1009.61 1008.87 1008.17 1007.54 1007.02 1006.63 1006.40 1006.33 1006.39 1006.57 1006.84 1007.15 1007.48 1007.80 1008.08 1008.30 1008.47 1008.58 1008.65 1008.67 1008.68 1008.67 1008.67 1008.67 1008.68 1008.69 1008.70 1008.70 1008.68 1008.62 1008.50 1008.34 1008.12 1007.84 1007.53 1007.20 1006.84 1006.49
1013.12 1012.55 1011.93 1011.28 1010.59 1009.89 1009.20 1008.55 1007.99 1007.53 1007.19 1006.99 1006.92 1006.96 1007.10 1007.30 1007.53 1007.78 1008.01 1008.21 1008.37 1008.48 1008.55 1008.58 1008.58 1008.57 1008.54 1008.50 1008.46 1008.43 1008.39 1008.35 1008.30 1008.22 1008.11 1007.95 1007.75 1007.51 1007.22 1006.90 1006.55 1006.19 1005.81
1013.35 1012.79 1012.19 1011.55 1010.89 1010.23 1009.60 1009.02 1008.52 1008.12 1007.82 1007.64 1007.56 1007.56 1007.64 1007.76 1007.90 1008.05 1008.19 1008.31 1008.40 1008.46 1008.48 1008.48 1008.45 1008.41 1008.34 1008.26 1008.17 1008.08 1007.98 1007.87 1007.76 1007.62 1007.46 1007.28 1007.07 1006.82 1006.54 1006.23 1005.89 1005.53 1005.15
1013.57 1013.02 1012.43 1011.82 1011.19 1010.58 1010.01 1009.49 1009.06 1008.71 1008.45 1008.27 1008.18 1008.14 1008.15 1008.19 1008.24 1008.30 1008.35 1008.39 1008.42 1008.42 1008.41 1008.37 1008.31 1008.22 1008.11 1007.97 1007.82 1007.65 1007.47 1007.29 1007.11 1006.92 1006.73 1006.53 1006.31 1006.08 1005.82 1005.54 1005.22 1004.87 1004.49
1013.77 1013.22 1012.64 1012.04 1011.44 1010.88 1010.36 1009.91 1009.53 1009.23 1009.00 1008.84 1008.72 1008.65 1008.60 1008.57 1008.54 1008.52 1008.50 1008.48 1008.45 1008.41 1008.36 1008.29 1008.18 1008.05 1007.88 1007.68 1007.44 1007.19 1006.93 1006.67 1006.42 1006.19 1005.97 1005.75 1005.55 1005.33 1005.10 1004.84 1004.55 1004.22 1003.84
1013.92 1013.36 1012.77 1012.18 1011.61 1011.09 1010.62 1010.22 1009.90 1009.64 1009.44 1009.29 1009.17 1009.07 1008.98 1008.89 1008.81 1008.73 1008.65 1008.59 1008.52 1008.45 1008.36 1008.25 1008.11 1007.92 1007.69 1007.41 1007.10 1006.77 1006.43 1006.09 1005.78 1005.50 1005.25 1005.03 1004.82 1004.62 1004.41 1004.17 1003.89 1003.56 1003.17
1014.03 1013.44 1012.84 1012.25 1011.70 1011.20 1010.78 1010.42 1010.15 1009.93 1009.76 1009.62 1009.50 1009.39 1009.27 1009.15 1009.03 1008.92 1008.81 1008.72 1008.62 1008.53 1008.42 1008.28 1008.10 1007.86 1007.57 1007.22 1006.84 1006.43 1006.01 1005.61 1005.24 1004.92 1004.63 1004.39 1004.18 1003.98 1003.77 1003.53 1003.24 1002.89 1002.48
1014.10 1013.48 1012.86 1012.26 1011.72 1011.24 1010.84 1010.53 1010.29 1010.10 1009.96 1009.84 1009.73 1009.61 1009.48 1009.35 1009.21 1009.08 1008.96 1008.85 1008.75 1008.64 1008.51 1008.34 1008.13 1007.85 1007.51 1007.11 1006.66 1006.19 1005.71 1005.26 1004.84 1004.47 1004.15 1003.88 1003.65 1003.42 1003.18 1002.91 1002.59 1002.21 1001.77
1014.15 1013.50 1012.86 1012.25 1011.70 1011.24 1010.86 1010.57 1010.35 1010.19 1010.07 1009.96 1009.85 1009.74 1009.61 1009.48 1009.34 1009.21 1009.08 1008.97 1008.86 1008.74 1008.60 1008.41 1008.17 1007.86 1007.49 1007.04 1006.55 1006.04 1005.52 1005.02 1004.56 1004.15 1003.80 1003.49 1003.21 1002.93 1002.65 1002.32 1001.95 1001.52 1001.03
1014.19 1013.52 1012.86 1012.24 1011.69 1011.23 1010.86 1010.58 1010.38 1010.23 1010.11 1010.01 1009.91 1009.80 1009.68 1009.55 1009.41 1009.28 1009.16 1009.04 1008.93 1008.80 1008.65 1008.45 1008.19 1007.86 1007.46 1007.00 1006.49 1005.95 1005.40 1004.88 1004.39 1003.94 1003.54 1003.18 1002.84 1002.50 1002.15 1001.76 1001.32 1000.83 1000.29
1014.24 1013.56 1012.89 1012.27 1011.72 1011.27 1010.90 1010.62 1010.41 1010.26 1010.14 1010.04 1009.94 1009.83 1009.71 1009.58 1009.44 1009.31 1009.19 1009.07 1008.95 1008.81 1008.65 1008.43 1008.16 1007.82 1007.41 1006.94 1006.42 1005.88 1005.32 1004.78 1004.27 1003.80 1003.35 1002.94 1002.53 1002.12 1001.69 1001.23 1000.72 1000.18 999.60
1014.32 1013.65 1012.99 1012.38 1011.84 1011.38 1011.01 1010.72 1010.50 1010.34 1010.21 1010.10 1009.98 1009.86 1009.73 1009.60 1009.46 1009.33 1009.19 1009.07 1008.93 1008.78 1008.60 1008.37 1008.09 1007.74 1007.33 1006.86 1006.35 1005.81 1005.26 1004.71 1004.19 1003.68 1003.20 1002.73 1002.27 1001.79 1001.29 1000.76 1000.20 999.61 999.00
1014.44 1013.80 1013.17 1012.58 1012.05 1011.60 1011.23 1010.93 1010.69 1010.51 1010.35 1010.21 1010.08 1009.95 1009.80 1009.66 1009.51 1009.36 1009.22 1009.07 1008.92 1008.75 1008.54 1008.30 1008.00 1007.65 1007.24 1006.78 1006.28 1005.75 1005.21 1004.66 1004.12 1003.60 1003.08 1002.56 1002.04 1001.51 1000.95 1000.37 999.78 999.17 998.56
1014.61 1014.02 1013.44 1012.89 1012.38 1011.94 1011.57 1011.26 1011.00 1010.79 1010.60 1010.44 1010.28 1010.12 1009.95 1009.79 1009.63 1009.46 1009.30 1009.14 1008.96 1008.77 1008.54 1008.28 1007.97 1007.61 1007.20 1006.74 1006.24 1005.72 1005.18 1004.64 1004.09 1003.54 1002.99 1002.44 1001.87 1001.30 1000.70 1000.10 999.49 998.89 998.31
1014.84 1014.32 1013.80 1013.29 1012.83 1012.40 1012.03 1011.71 1011.43 1011.19 1010.97 1010.77 1010.58 1010.40 1010.21 1010.03 1009.85 1009.67 1009.49 1009.31 1009.11 1008.89 1008.64 1008.36 1008.03 1007.65 1007.24 1006.77 1006.28 1005.76 1005.22 1004.66 1004.10 1003.53 1002.96 1002.37 1001.78 1001.18 1000.57 999.96 999.36 998.79 998.25
1015.11 1014.68 1014.23 1013.78 1013.36 1012.96 1012.60 1012.27 1011.97 1011.70 1011.45 1011.22 1011.00 1010.79 1010.58 1010.38 1010.18 1009.99 1009.80 1009.59 1009.38 1009.13 1008.86 1008.56 1008.21 1007.82 1007.38 1006.91 1006.40 1005.87 1005.32 1004.75 1004.17 1003.58 1002.98 1002.38 1001.77 1001.16 1000.55 999.96 999.39 998.87 998.39
1015.41 1015.07 1014.70 1014.32 1013.94 1013.57 1013.22 1012.89 1012.58 1012.28 1012.00 1011.74 1011.49 1011.26 1011.03 1010.82 1010.61 1010.41 1010.20 1009.99 1009.75 1009.49 1009.20 1008.87 1008.50 1008.09 1007.63 1007.13 1006.61 1006.06 1005.48 1004.89 1004.29 1003.68 1003.07 1002.45 1001.84 1001.23 1000.65 1000.09 999.57 999.10 998.70
1015.72 1015.45 1015.16 1014.85 1014.53 1014.19 1013.86 1013.53 1013.20 1012.89 1012.58 1012.30 1012.02 1011.77 1011.53 1011.31 1011.09 1010.88 1010.67 1010.45 1010.20 1009.92 1009.61 1009.26 1008.86 1008.42 1007.93 1007.41 1006.86 1006.28 1005.68 1005.07 1004.45 1003.82 1003.20 1002.58 1001.98 1001.40 1000.85 1000.34 999.88 999.48 999.15
1015.98 1015.80 1015.58 1015.34 1015.06 1014.76 1014.45 1014.12 1013.79 1013.46 1013.14 1012.84 1012.55 1012.28 1012.03 1011.80 1011.58 1011.37 1011.15 1010.92 1010.66 1010.37 1010.04 1009.66 1009.23 1008.76 1008.24 1007.69 1007.10 1006.50 1005.87 1005.24 1004.61 1003.98 1003.36 1002.76 1002.18 1001.64 1001.14 1000.69 1000.30 999.98 999.73
1016.17 1016.07 1015.92 1015.73 1015.51 1015.24 1014.95 1014.64 1014.31 1013.98 1013.65 1013.33 1013.03 1012.75 1012.50 1012.26 1012.04 1011.82 1011.60 1011.36 1011.09 1010.78 1010.42 1010.02 1009.56 1009.06 1008.51 1007.92 1007.30 1006.67 1006.03 1005.38 1004.75 1004.12 1003.53 1002.96 1002.43 1001.94 1001.51 1001.13 1000.82 1000.58 1000.42
1016.28 1016.24 1016.16 1016.03 1015.85 1015.62 1015.36 1015.06 1014.75 1014.42 1014.09 1013.77 1013.47 1013.19 1012.93 1012.69 1012.47 1012.24 1012.01 1011.76 1011.47 1011.14 1010.75 1010.32 1009.82 1009.28 1008.70 1008.08 1007.44 1006.79 1006.13 1005.49 1004.87 1004.27 1003.71 1003.19 1002.72 1002.31 1001.95 1001.66 1001.44 1001.29 1001.21
1016.30 1016.32 1016.29 1016.21 1016.08 1015.90 1015.67 1015.40 1015.11 1014.80 1014.48 1014.17 1013.88 1013.60 1013.34 1013.10 1012.87 1012.64 1012.39 1012.12 1011.81 1011.45 1011.03 1010.56 1010.03 1009.46 1008.84 1008.20 1007.53 1006.87 1006.22 1005.59 1004.99 1004.43 1003.92 1003.47 1003.08 1002.75 1002.48 1002.28 1002.15 1002.09 1002.09
Thickness
5685 5682 5680 5677 5675 5672 5668 5666 5663 5660 5658 5655 5654 5652 5651 5649 5646 5644 5641 5639 5636 5634 5632 5630 5628 5626 5625 5623 5621 5619 5617 5616 5615 5616 5615 5615 5615 5615 5616 5617 5618 5619 5621
5683 5680 5677 5675 5672 5669 5666 5663 5660 5657 5654 5652 5650 5648 5647 5644 5642 5639 5637 5635 5632 5630 5627 5625 5623 5622 5620 5618 5616 5614 5612 5611 5610 5609 5608 5608 5608 5608 5609 5610 5611 5613 5614
5680 5677 5674 5671 5668 5665 5662 5660 5657 5654 5651 5648 5646 5644 5642 5640 5638 5635 5633 5630 5628 5626 5623 5621 5619 5617 5615 5613 5611 5609 5607 5606 5603 5602 5601 5600 5601 5601 5601 5603 5604 5605 5607
5678 5674 5671 5668 5665 5662 5659 5656 5653 5650 5647 5645 5643 5640 5638 5636 5633 5631 5628 5626 5624 5621 5619 5617 5615 5612 5610 5608 5606 5604 5602 5600 5597 5595 5594 5593 5593 5593 5593 5594 5596 5597 5598
5675 5671 5669 5666 5662 5659 5655 5652 5649 5646 5644 5641 5639 5636 5634 5632 5629 5627 5624 5622 5619 5617 5615 5612 5610 5608 5606 5604 5602 5599 5597 5595 5592 5590 5588 5587 5586 5586 5587 5587 5588 5589 5591
5671 5668 5665 5662 5659 5655 5652 5648 5645 5642 5640 5637 5634 5632 5629 5628 5626 5623 5620 5617 5614 5611 5609 5607 5605 5603 5602 5600 5598 5595 5593 5590 5588 5585 5583 5582 5582 5582 5581 5582 5582 5582 5585
5667 5664 5661 5658 5655 5652 5649 5645 5641 5638 5635 5632 5630 5627 5625 5623 5621 5618 5615 5612 5609 5606 5604 5601 5600 5599 5596 5594 5592 5591 5588 5586 5584 5582 5580 5579 5579 5578 5577 5577 5576 5576 5578
5663 5661 5658 5655 5652 5648 5645 5641 5638 5635 5631 5629 5626 5624 5621 5620 5617 5614 5611 5608 5605 5602 5599 5597 5594 5593 5591 5588 5587 5585 5583 5582 5580 5578 5577 5577 5576 5575 5574 5573 5573 5572 5573
5661 5658 5656 5652 5649 5645 5642 5639 5635 5632 5629 5626 5623 5620 5617 5616 5613 5610 5607 5604 5601 5599 5596 5594 5591 5589 5587 5584 5582 5580 5579 5579 5577 5576 5574 5574 5573 5572 5571 5569 5569 5568 5570
5657 5655 5653 5650 5646 5642 5639 5636 5633 5629 5626 5623 5620 5617 5614 5612 5610 5607 5603 5600 5597 5595 5593 5591 5588 5586 5584 5581 5578 5577 5576 5576 5574 5574 5572 5572 5571 5569 5568 5566 5566 5565 5566
5654 5652 5650 5647 5644 5640 5636 5634 5630 5627 5623 5620 5617 5615 5611 5609 5607 5604 5601 5597 5595 5592 5590 5588 5586 5584 5581 5579 5576 5575 5574 5573 5572 5570 5569 5569 5568 5567 5565 5564 5563 5562 5562
5650 5648 5645 5643 5641 5638 5633 5630 5627 5623 5619 5616 5614 5611 5609 5606 5604 5602 5599 5595 5593 5589 5588 5586 5584 5581 5579 5577 5575 5573 5572 5570 5569 5567 5566 5566 5565 5564 5563 5561 5561 5560 5560
5646 5643 5641 5639 5636 5634 5630 5626 5622 5619 5616 5613 5610 5608 5606 5604 5602 5599 5596 5593 5590 5587 5585 5583 5581 5579 5577 5575 5573 5571 5569 5567 5566 5565 5564 5563 5562 5561 5560 5559 5559 5558 5558
5641 5639 5637 5635 5632 5630 5626 5623 5619 5616 5613 5610 5608 5605 5603 5601 5599 5597 5594 5590 5587 5584 5582 5579 5577 5575 5573 5572 5571 5569 5567 5565 5564 5563 5562 5561 5559 5557 5557 5556 5555 5555 5555
5637 5635 5633 5631 5628 5625 5623 5620 5617 5615 5612 5609 5606 5603 5601 5599 5598 5594 5591 5587 5584 5582 5578 5575 5573 5572 5571 5569 5568 5566 5564 5563 5561 5560 5558 5557 5556 5555 5554 5553 5551 5551 5550
5633 5631 5629 5626 5624 5622 5619 5617 5615 5612 5610 5607 5604 5601 5599 5597 5595 5591 5588 5584 5580 5577 5574 5573 5571 5569 5568 5567 5565 5564 5563 5561 5559 5557 5556 5554 5553 5552 5551 5550 5548 5547 5547
5629 5627 5624 5622 5620 5617 5615 5613 5611 5610 5607 5604 5602 5599 5596 5594 5591 5588 5584 5581 5577 5573 5571 5571 5569 5567 5565 5564 5562 5561 5560 5558 5556 5554 5553 5552 5550 5549 5547 5546 5545 5544 5543
5625 5623 5621 5619 5616 5614 5611 5609 5607 5605 5603 5602 5600 5597 5594 5591 5588 5585 5581 5577 5574 5570 5569 5568 5567 5565 5563 5562 5560 5559 5557 5555 5553 5552 5550 5549 5547 5545 5544 5543 5542 5540 5539
5620 5618 5616 5615 5613 5610 5607 5605 5604 5601 5599 5598 5596 5594 5591 5588 5585 5582 5578 5575 5573 5571 5568 5566 5565 5563 5562 5560 5558 5556 5554 5552 5551 5549 5547 5545 5543 5542 5541 5540 5538 5535 5534
5615 5614 5612 5610 5608 5606 5603 5601 5600 5598 5596 5595 5593 5591 5588 5585 5583 5580 5576 5573 5571 5569 5567 5565 5563 5561 5559 5557 5555 5553 5551 5550 5548 5546 5544 5542 5540 5539 5538 5537 5536 5534 5533
5611 5610 5608 5606 5604 5602 5599 5597 5596 5594 5592 5591 5590 5588 5584 5583 5581 5578 5576 5573 5570 5568 5565 5562 5560 5558 5557 5554 5552 5550 5548 5546 5545 5543 5541 5539 5537 5536 5535 5534 5533 5531 5530
5606 5605 5603 5601 5600 5597 5595 5594 5592 5590 5588 5587 5587 5585 5581 5580 5578 5575 5573 5571 5568 5565 5563 5559 5557 5555 5553 5551 5549 5547 5545 5543 5541 5539 5537 5535 5534 5533 5532 5531 5530 5528 5527
5601 5599 5598 5596 5595 5592 5591 5589 5588 5586 5585 5584 5583 5581 5579 5576 5574 5572 5570 5567 5565 5562 5559 5556 5553 5551 5549 5547 5544 5542 5541 5539 5537 5535 5532 5530 5529 5529 5528 5527 5526 5525 5524
5596 5594 5593 5591 5590 5588 5586 5585 5584 5582 5581 5580 5578 5577 5575 5572 5571 5569 5566 5563 5560 5558 5555 5552 5549 5547 5545 5542 5540 5538 5536 5534 5531 5529 5527 5526 5525 5524 5524 5523 5522 5521 5520
5591 5589 5588 5586 5585 5583 5582 5581 5580 5578 5577 5576 5575 5573 5571 5569 5567 5565 5562 5559 5556 5554 5551 5548 5545 5543 5540 5538 5535 5533 5531 5529 5526 5524 5523 5522 5521 5521 5520 5519 5519 5517 5516
5586 5585 5583 5581 5580 5579 5578 5576 5575 5574 5573 5571 5570 5569 5567 5565 5563 5561 5558 5555 5553 5550 5547 5544 5541 5538 5536 5533 5531 5529 5527 5525 5523 5520 5518 5517 5517 5517 5516 5515 5515 5513 5512